TimePDT,TemperatureF,Dew PointF,Humidity,Sea Level PressureIn,VisibilityMPH,Wind Direction,Wind SpeedMPH,Gust SpeedMPH,PrecipitationIn,Events,Conditions,WindDirDegrees,DateUTC
12:56 AM,77.0,37.9,24,29.71,10.0,SSW,10.4,-,N/A,,Clear,210,2013-05-31 07:56:00
1:56 AM,68.0,35.1,30,29.73,10.0,WNW,3.5,-,N/A,,Clear,300,2013-05-31 08:56:00
2:56 AM,64.9,34.0,32,29.75,10.0,South,5.8,-,N/A,,Clear,170,2013-05-31 09:56:00
3:56 AM,64.9,35.1,33,29.75,10.0,SSE,4.6,-,N/A,,Clear,150,2013-05-31 10:56:00
4:56 AM,62.1,34.0,35,29.78,10.0,Calm,Calm,-,N/A,,Clear,0,2013-05-31 11:56:00
5:56 AM,60.1,33.1,36,29.81,10.0,Calm,Calm,-,N/A,,Clear,0,2013-05-31 12:56:00
6:56 AM,66.9,35.1,31,29.84,10.0,Calm,Calm,-,N/A,,Clear,0,2013-05-31 13:56:00
7:56 AM,73.0,36.0,26,29.87,10.0,Calm,Calm,-,N/A,,Clear,0,2013-05-31 14:56:00
8:56 AM,80.1,36.0,20,29.88,10.0,ENE,3.5,-,N/A,,Clear,70,2013-05-31 15:56:00
9:56 AM,86.0,30.0,13,29.88,10.0,ESE,4.6,-,N/A,,Clear,110,2013-05-31 16:56:00
10:56 AM,87.1,28.0,12,29.88,10.0,Variable,3.5,-,N/A,,Clear,0,2013-05-31 17:56:00
11:56 AM,91.0,27.0,10,29.88,10.0,Variable,3.5,-,N/A,,Clear,0,2013-05-31 18:56:00
12:56 PM,93.0,26.1,9,29.86,10.0,Variable,3.5,-,N/A,,Clear,0,2013-05-31 19:56:00
1:56 PM,93.9,24.1,8,29.84,10.0,Calm,Calm,-,N/A,,Clear,0,2013-05-31 20:56:00
2:56 PM,96.1,24.1,8,29.83,10.0,South,6.9,-,N/A,,Clear,170,2013-05-31 21:56:00
3:56 PM,97.0,24.1,7,29.80,10.0,SSE,8.1,-,N/A,,Clear,160,2013-05-31 22:56:00
4:56 PM,97.0,24.1,7,29.79,10.0,South,4.6,-,N/A,,Clear,170,2013-05-31 23:56:00
5:56 PM,97.0,23.0,7,29.79,10.0,East,9.2,-,N/A,,Clear,100,2013-06-01 00:56:00
6:56 PM,95.0,23.0,8,29.78,10.0,NE,5.8,-,N/A,,Clear,40,2013-06-01 01:56:00
7:56 PM,91.0,21.9,8,29.80,10.0,SE,3.5,-,N/A,,Clear,140,2013-06-01 02:56:00
8:56 PM,82.9,21.9,11,29.81,10.0,South,4.6,-,N/A,,Clear,170,2013-06-01 03:56:00
9:56 PM,81.0,28.0,14,29.82,10.0,South,8.1,-,N/A,,Clear,190,2013-06-01 04:56:00
10:56 PM,75.9,32.0,20,29.83,10.0,SSW,8.1,-,N/A,,Clear,200,2013-06-01 05:56:00
11:56 PM,75.0,35.1,23,29.83,10.0,SSW,9.2,-,N/A,,Clear,200,2013-06-01 06:56:00